Location: Del Oro Observatory
(38.3044°N, 104.8119°W)
Time: 09:24:53
(UTC-06:00)

Cosmos 1602 Rocket - Visible Passes

Search period start: 07 July 2015 00:00
Search period end: 17 July 2015 00:00
Orbit: 605 x 634 km, 82.5° (Epoch: 06 July)

Date Brightness Start Highest point End Pass type
(mag) Time Alt. Az. Time Alt. Az. Time Alt. Az.
07 Jul 5.3 01:34:14 10° NNE 01:37:40 25° ENE 01:37:40 25° ENE visible
07 Jul 5.1 03:12:10 10° NW 03:14:48 22° WNW 03:14:48 22° WNW visible
08 Jul 4.5 01:51:15 10° N 01:54:47 44° NE 01:54:47 44° NE visible
08 Jul 5.8 03:31:08 10° WNW 03:31:55 11° WNW 03:31:55 11° WNW visible
09 Jul 4.2 02:08:36 10° N 02:11:55 51° NNW 02:11:55 51° NNW visible
10 Jul 6.0 00:49:49 10° NE 00:51:56 15° ENE 00:51:56 15° ENE visible
10 Jul 4.8 02:26:17 10° NNW 02:29:04 32° NW 02:29:04 32° NW visible
11 Jul 5.4 01:06:15 10° NNE 01:09:06 25° NE 01:09:06 25° NE visible
11 Jul 5.5 02:44:21 10° NW 02:46:14 18° WNW 02:46:14 18° WNW visible
12 Jul 4.8 01:23:18 10° N 01:26:17 38° NNE 01:26:17 38° NNE visible
13 Jul 4.8 01:40:42 10° N 01:43:28 39° NNW 01:43:28 39° NNW visible
14 Jul 5.9 00:21:44 10° NE 00:23:32 15° ENE 00:23:32 15° ENE visible
14 Jul 5.2 01:58:23 10° NNW 02:00:41 26° NW 02:00:41 26° NW visible
15 Jul 5.4 00:38:16 10° NNE 00:40:46 24° NE 00:40:46 24° NE visible
15 Jul 5.8 02:16:32 10° NW 02:17:55 16° NW 02:17:55 16° NW visible
16 Jul 5.0 00:55:21 10° N 00:58:00 34° NNE 00:58:00 34° NNE visible
